Location: 81360 Arifat, France
(43.7204°N, 2.3408°E)
Time: 03:06:04
(UTC+01:00)

ACS3 Solar Sail - Pass Details

Date: 18 October 2025
Orbit: 909 x 993 km, 97.3° (Epoch: 13 November)

Event Time Altitude Azimuth Distance (km) Brightness Sun altitude
Rises 06:03:55 0° 8° (N) 3,551 5.0 -23.2°
Reaches altitude 10° 06:06:21 10° 4° (N) 2,608 4.2 -22.8°
Maximum altitude 06:12:03 59° 287° (WNW) 1,059 1.7 -21.8°
Enters shadow 06:14:49 31° 221° (SW) 1,575 2.5 -21.3°
